Wind_Speed
20 21 24 23 25 30 34 35 34 30 29 27 28 28 24 25 21 22 25 24 26 26 27 26 24 22 24 24 21 21 18 18 17 17 15 19 30 33 37 39 37 32 31
23 25 26 27 29 29 32 31 30 26 23 21 21 24 21 22 25 27 30 28 27 27 26 24 23 22 23 28 25 25 23 22 19 20 19 16 20 26 35 38 40 37 34
26 28 28 26 27 28 27 27 27 23 23 23 24 26 25 25 25 25 26 27 26 26 23 22 20 21 21 21 29 28 27 24 23 21 21 20 22 23 33 38 38 38 37
27 28 25 25 27 27 26 27 24 24 23 24 23 23 22 21 19 19 18 18 18 18 18 19 21 23 23 22 23 29 29 26 22 22 21 22 22 27 27 41 41 38 37
19 20 21 21 19 19 19 19 21 22 19 17 15 15 16 16 16 16 16 16 17 17 17 18 21 21 22 22 22 22 26 26 25 24 24 23 25 24 20 35 41 41 39
13 14 13 14 15 16 16 17 15 13 13 13 14 15 15 14 12 12 12 12 13 14 15 15 17 18 18 18 19 18 21 23 24 25 26 26 27 29 27 27 35 43 42
11 11 12 12 13 14 14 13 13 12 11 11 10 10 12 13 13 13 13 13 13 13 12 12 13 14 14 15 16 16 18 21 22 23 25 26 29 29 30 28 27 34 46
7 8 9 10 11 11 10 9 8 9 10 9 11 13 14 15 16 16 16 15 14 13 13 11 10 10 10 11 13 14 15 15 17 20 24 26 29 32 32 33 29 26 41
8 7 6 5 7 8 7 8 8 8 7 9 11 13 14 14 15 15 16 18 17 17 16 15 15 14 12 13 14 15 13 14 16 17 18 20 22 28 31 33 32 29 31
6 5 4 6 6 6 5 6 6 8 10 11 13 14 14 13 13 13 13 14 14 16 17 17 16 17 17 17 16 18 19 16 15 16 18 19 20 20 21 24 31 33 32
3 3 5 6 8 10 11 12 13 14 15 16 17 17 17 17 17 17 18 18 17 17 18 20 21 20 19 19 20 19 19 19 20 20 20 21 21 22 22 22 24 34 29
4 5 7 9 11 13 14 17 18 19 20 20 21 21 21 21 21 22 24 25 25 24 24 24 23 23 24 23 24 24 23 23 22 21 20 23 25 25 26 25 23 25 31
10 12 14 15 16 17 17 18 18 19 21 23 25 27 29 29 30 32 33 34 33 32 32 32 31 31 31 30 29 28 28 30 29 28 25 24 25 26 27 28 29 26 26
14 15 15 15 15 16 18 21 24 25 27 29 30 31 32 34 35 35 36 37 37 36 35 35 35 35 35 34 34 33 33 34 35 35 32 32 31 30 29 30 30 31 30
18 19 19 20 21 22 25 28 30 31 32 32 32 34 35 35 35 35 36 37 38 37 37 38 38 38 37 38 38 38 38 38 38 38 39 37 37 36 35 35 33 33 33
19 21 23 25 26 26 29 31 32 34 35 35 34 35 36 37 39 40 40 41 41 40 41 42 42 42 41 42 42 42 42 43 43 43 43 42 42 42 42 40 40 38 37
21 24 26 27 29 30 32 35 36 36 36 38 39 38 40 42 42 42 42 42 41 40 39 41 41 42 44 45 46 46 46 47 47 46 47 48 48 47 47 47 46 45 44
25 28 28 30 33 35 37 38 38 37 38 40 43 44 46 43 45 44 44 44 44 43 42 41 42 41 42 43 44 45 45 46 46 47 48 49 51 51 50 50 52 52 50
30 31 33 35 35 36 38 40 39 41 44 44 44 47 48 48 47 47 46 45 46 47 47 49 49 48 48 47 48 48 47 47 47 47 47 49 51 53 55 52 53 55 57
33 35 37 38 37 40 42 42 42 45 47 48 50 51 50 50 49 49 49 51 53 54 55 56 56 57 56 55 56 56 53 53 53 52 51 50 52 53 56 59 57 57 57
34 36 39 39 40 43 45 46 48 50 52 51 52 53 52 53 52 53 53 55 57 59 59 60 62 62 62 61 62 60 60 60 58 57 55 55 55 55 57 59 60 61 61
36 38 40 40 42 45 48 50 52 54 53 52 53 54 54 54 56 57 60 62 63 65 66 65 66 66 65 63 64 64 65 64 64 60 63 60 57 59 59 58 61 62 62
38 41 42 43 46 49 52 53 54 54 54 55 56 58 59 62 63 65 67 68 69 70 71 71 71 72 72 69 70 70 69 69 70 70 69 64 69 65 63 60 62 63 64
42 43 44 47 50 52 52 52 53 54 55 58 60 62 63 65 66 69 71 73 73 73 73 74 74 74 75 72 74 73 71 67 68 70 71 70 68 74 72 68 66 65 66
45 46 48 48 48 50 52 53 55 56 59 63 64 65 67 70 72 73 75 76 76 75 74 74 75 77 80 78 76 73 69 73 67 70 71 72 73 73 71 71 72 68 68
45 45 45 47 50 52 53 54 56 61 65 67 68 70 73 75 76 76 76 76 76 78 79 82 81 79 79 80 79 78 76 73 70 70 72 70 72 72 72 70 73 72 72
Wind_Direction
268 267 268 278 286 298 299 307 310 309 306 304 302 301 307 311 307 308 303 302 301 292 290 294 291 292 291 279 265 260 261 257 252 254 268 271 265 267 247 249 247 238 238
277 281 286 292 301 307 308 305 305 303 305 307 319 323 321 314 309 305 302 300 299 296 295 292 291 290 289 273 261 255 245 246 254 254 259 271 266 271 244 239 237 238 235
288 297 303 310 304 302 305 311 315 318 325 325 322 323 320 315 309 306 304 304 306 300 293 289 288 291 293 284 263 259 252 252 249 252 258 250 259 266 249 236 234 237 234
296 302 302 306 309 311 315 319 325 325 327 324 321 320 319 316 317 320 314 315 316 314 304 292 291 294 294 293 277 262 262 265 270 265 255 256 260 261 259 234 231 233 235
300 307 306 318 325 318 319 321 317 319 322 329 326 318 310 309 314 321 322 322 311 305 296 288 294 297 295 295 286 273 270 267 266 265 262 257 260 259 260 239 236 231 234
306 316 324 322 320 316 313 308 311 324 326 324 325 329 332 332 330 329 331 326 323 314 311 305 299 298 299 297 294 286 272 268 268 263 259 258 259 257 260 251 243 236 233
309 322 329 329 324 321 319 321 326 329 333 342 360 7 0 355 353 351 350 345 342 340 337 328 322 318 318 313 307 303 288 280 274 269 263 262 255 258 258 264 269 244 236
10 8 20 22 24 19 17 14 14 17 15 1 343 343 344 342 340 336 331 327 328 327 327 326 328 329 322 312 311 319 317 309 299 279 268 262 259 260 264 265 266 267 239
61 49 39 38 33 44 34 25 10 3 354 337 332 328 327 327 324 323 324 325 326 322 316 313 310 304 298 296 298 298 299 304 303 296 290 283 276 270 272 268 264 265 254
75 67 51 34 21 18 9 353 344 331 324 318 318 318 319 317 316 319 319 318 317 316 315 312 305 299 295 291 289 290 289 281 277 283 286 288 286 285 286 278 266 261 265
62 27 10 354 345 349 346 343 337 329 324 321 317 315 311 311 315 319 320 318 313 308 306 308 307 300 291 286 284 280 277 280 281 276 272 273 276 281 285 288 287 271 257
338 334 318 319 330 332 332 326 322 321 318 315 315 314 311 309 309 310 310 309 306 302 298 297 295 296 295 291 286 280 272 268 266 269 274 276 275 274 273 277 280 288 283
328 321 318 324 325 326 326 319 316 313 313 315 316 316 314 311 309 308 306 305 304 301 299 297 296 294 293 291 287 284 282 277 272 266 264 264 272 277 276 275 274 274 281
320 315 313 313 321 321 317 313 313 314 315 316 316 315 313 311 309 307 304 302 301 300 298 295 294 293 292 291 289 286 283 283 280 273 268 265 262 264 269 272 271 271 269
324 319 317 318 316 317 316 314 315 313 312 311 311 311 310 306 303 303 302 300 298 297 295 293 291 289 288 289 289 288 287 285 282 277 274 267 264 264 262 261 263 263 265
317 316 312 310 311 311 309 307 306 308 308 309 308 308 307 303 300 299 300 300 297 295 293 291 289 287 285 285 285 284 282 281 280 278 276 271 266 263 262 259 258 256 254
311 306 305 306 306 307 306 305 307 306 306 307 305 303 303 300 298 298 300 299 298 297 294 291 289 288 286 285 284 282 281 279 278 276 273 272 270 267 262 259 257 254 252
305 307 310 308 306 307 305 305 304 303 303 303 303 300 304 304 303 304 303 301 299 297 294 292 290 288 287 285 283 281 280 278 276 275 273 272 271 268 264 261 257 254 251
309 310 307 305 306 304 302 302 302 302 305 306 305 305 308 309 307 304 303 300 297 296 296 294 294 292 288 285 283 282 281 279 275 273 272 272 272 269 266 259 257 254 252
308 307 307 306 302 303 304 302 302 304 305 305 305 305 304 302 301 300 301 301 301 300 298 297 295 293 290 289 288 286 283 279 279 279 277 272 269 268 267 266 258 255 252
303 303 303 301 299 302 302 300 301 303 303 302 300 300 300 299 298 298 297 296 295 294 293 294 291 289 289 288 286 286 285 285 283 282 281 277 272 268 266 266 264 260 253
297 296 296 295 296 296 297 295 295 298 299 297 295 295 295 295 294 294 294 294 294 292 291 291 291 289 287 288 287 287 284 282 281 282 281 279 275 272 266 263 263 261 259
291 292 291 292 292 291 293 296 297 296 295 296 297 298 298 297 296 295 293 292 291 291 291 291 291 290 288 286 287 285 285 281 281 278 275 276 275 272 269 264 261 259 258
291 290 288 290 292 294 294 294 294 294 295 297 298 297 296 295 294 293 294 294 292 292 292 290 289 288 288 285 285 286 281 282 280 278 275 271 271 271 270 268 263 259 257
289 290 292 294 293 293 293 294 295 297 298 299 297 296 296 297 299 298 297 296 295 293 291 291 290 289 289 288 288 289 287 281 278 278 274 274 270 267 265 266 263 260 258
289 292 294 294 294 295 297 298 297 296 298 300 300 299 300 298 297 296 295 295 294 293 292 292 292 292 291 291 290 286 284 283 279 276 273 271 267 267 264 260 261 259 256
Height
5853 5852 5851 5850 5848 5847 5845 5844 5843 5841 5840 5839 5839 5837 5836 5834 5834 5832 5832 5831 5830 5827 5826 5825 5824 5823 5822 5821 5822 5824 5823 5823 5823 5824 5823 5823 5824 5824 5824 5827 5829 5831 5833
5848 5847 5846 5846 5845 5842 5841 5840 5837 5836 5835 5834 5834 5834 5832 5830 5830 5828 5827 5826 5824 5822 5821 5819 5819 5818 5816 5815 5816 5817 5816 5817 5818 5818 5818 5818 5818 5817 5817 5819 5822 5825 5827
5843 5843 5844 5842 5840 5838 5838 5837 5836 5835 5833 5832 5831 5829 5828 5826 5825 5824 5822 5821 5818 5817 5815 5815 5814 5813 5810 5809 5809 5810 5811 5811 5811 5811 5812 5811 5813 5812 5812 5813 5816 5818 5821
5842 5840 5839 5838 5837 5836 5834 5833 5832 5831 5830 5829 5828 5825 5824 5823 5821 5819 5818 5817 5816 5812 5811 5810 5809 5807 5805 5804 5804 5805 5806 5807 5806 5806 5806 5806 5806 5807 5805 5805 5808 5811 5813
5838 5838 5836 5836 5834 5832 5832 5831 5830 5829 5828 5826 5825 5823 5821 5819 5817 5816 5815 5813 5810 5809 5809 5808 5806 5804 5802 5801 5800 5799 5801 5802 5801 5801 5801 5801 5802 5802 5800 5800 5802 5803 5806
5837 5835 5834 5832 5831 5830 5829 5828 5827 5826 5825 5824 5822 5821 5819 5817 5815 5814 5812 5811 5809 5806 5805 5804 5802 5801 5800 5799 5797 5796 5797 5796 5795 5796 5796 5796 5795 5797 5795 5793 5793 5796 5798
5834 5832 5831 5830 5830 5828 5827 5826 5825 5824 5824 5823 5821 5819 5819 5817 5815 5813 5811 5809 5808 5805 5803 5802 5801 5799 5797 5796 5794 5793 5792 5792 5791 5791 5790 5791 5791 5791 5790 5790 5789 5788 5792
5832 5831 5831 5830 5830 5828 5826 5825 5824 5824 5823 5821 5820 5819 5817 5815 5813 5810 5809 5808 5806 5804 5802 5800 5798 5797 5796 5794 5793 5792 5791 5790 5789 5788 5788 5787 5787 5786 5786 5786 5785 5784 5785
5832 5833 5832 5831 5828 5826 5826 5823 5823 5822 5820 5820 5818 5817 5815 5813 5810 5809 5807 5805 5803 5801 5799 5797 5796 5794 5793 5792 5790 5788 5787 5786 5785 5785 5784 5784 5784 5783 5782 5782 5781 5781 5780
5833 5832 5830 5828 5825 5824 5823 5822 5821 5820 5819 5817 5816 5814 5811 5809 5808 5806 5804 5802 5800 5798 5796 5794 5793 5791 5789 5788 5787 5785 5784 5783 5782 5781 5779 5779 5779 5779 5777 5775 5775 5774 5772
5831 5830 5827 5825 5824 5822 5820 5818 5817 5816 5815 5814 5812 5810 5809 5806 5804 5802 5800 5798 5796 5794 5791 5790 5788 5786 5785 5783 5782 5781 5779 5778 5777 5776 5775 5773 5773 5773 5773 5772 5769 5768 5765
5829 5827 5826 5823 5821 5820 5817 5817 5816 5814 5813 5811 5809 5807 5805 5803 5800 5797 5795 5793 5790 5788 5786 5784 5782 5780 5778 5777 5776 5774 5773 5772 5771 5770 5769 5768 5767 5767 5767 5767 5766 5763 5760
5827 5825 5824 5823 5821 5819 5817 5816 5814 5812 5810 5807 5805 5803 5800 5798 5795 5792 5789 5787 5784 5782 5779 5776 5774 5772 5771 5769 5768 5767 5765 5764 5764 5763 5763 5762 5761 5760 5760 5760 5760 5761 5759
5824 5823 5821 5820 5818 5816 5813 5812 5810 5807 5804 5802 5799 5796 5794 5791 5788 5785 5782 5779 5777 5774 5772 5769 5767 5765 5763 5761 5759 5758 5757 5756 5755 5754 5755 5754 5754 5754 5753 5752 5753 5754 5755
5824 5822 5819 5817 5815 5812 5810 5808 5805 5802 5800 5797 5793 5790 5787 5784 5781 5778 5776 5772 5769 5766 5763 5761 5759 5757 5755 5753 5751 5750 5748 5747 5746 5745 5744 5745 5745 5745 5746 5746 5746 5747 5747
5821 5817 5815 5813 5810 5807 5806 5804 5801 5798 5794 5790 5786 5784 5781 5778 5774 5771 5767 5764 5761 5758 5755 5752 5749 5747 5745 5743 5742 5740 5739 5737 5735 5735 5734 5735 5736 5736 5735 5736 5737 5738 5739
5816 5814 5811 5809 5806 5804 5801 5797 5794 5790 5786 5783 5780 5777 5774 5770 5766 5763 5759 5754 5750 5747 5745 5742 5739 5737 5734 5732 5730 5729 5727 5726 5724 5723 5722 5721 5722 5724 5726 5725 5725 5727 5728
5812 5809 5807 5804 5800 5797 5793 5790 5786 5783 5779 5775 5772 5768 5764 5759 5755 5751 5747 5744 5739 5736 5732 5729 5726 5724 5722 5720 5719 5717 5715 5713 5712 5711 5709 5709 5708 5708 5711 5712 5713 5713 5715
5807 5804 5801 5796 5793 5790 5787 5782 5778 5774 5771 5766 5762 5758 5753 5749 5744 5740 5736 5732 5728 5725 5721 5717 5714 5711 5709 5706 5704 5703 5702 5700 5699 5697 5697 5696 5696 5695 5693 5697 5698 5700 5702
5802 5798 5794 5791 5787 5783 5778 5774 5770 5765 5760 5756 5752 5747 5743 5739 5735 5731 5727 5723 5718 5714 5710 5706 5702 5699 5696 5693 5691 5689 5687 5684 5684 5683 5682 5681 5680 5681 5680 5679 5682 5683 5686
5797 5793 5789 5784 5780 5774 5770 5765 5761 5756 5752 5747 5742 5738 5734 5730 5724 5719 5715 5711 5707 5702 5697 5692 5689 5686 5682 5677 5675 5673 5671 5668 5666 5665 5665 5665 5664 5663 5664 5665 5665 5666 5668
5791 5787 5782 5777 5772 5767 5762 5757 5752 5748 5742 5738 5733 5728 5722 5717 5712 5706 5701 5696 5691 5686 5682 5677 5673 5669 5667 5662 5659 5656 5653 5652 5648 5650 5645 5645 5646 5647 5646 5646 5649 5650 5650
5783 5778 5773 5768 5764 5759 5754 5749 5744 5738 5733 5727 5722 5716 5710 5704 5698 5692 5687 5682 5677 5672 5669 5664 5659 5654 5651 5647 5640 5638 5635 5633 5627 5627 5631 5628 5625 5626 5627 5628 5628 5631 5634
5775 5770 5765 5760 5756 5751 5745 5739 5734 5728 5722 5716 5711 5704 5698 5691 5685 5678 5672 5666 5661 5656 5652 5647 5642 5637 5630 5630 5623 5618 5618 5616 5613 5609 5606 5607 5607 5606 5605 5609 5609 5609 5613
5765 5761 5757 5752 5746 5740 5734 5728 5722 5716 5710 5703 5696 5689 5682 5675 5667 5660 5653 5647 5641 5635 5630 5626 5621 5616 5610 5607 5603 5599 5594 5592 5594 5589 5588 5581 5581 5585 5585 5585 5587 5589 5590
5757 5753 5747 5741 5734 5728 5722 5717 5710 5703 5695 5686 5679 5672 5665 5658 5651 5643 5636 5628 5622 5617 5610 5603 5598 5592 5586 5581 5578 5575 5571 5568 5566 5566 5564 5566 5557 5557 5562 5562 5564 5566 5567